ALDINGEN Weather Reports


time (UTC)temp
F
wind
direction
speed
knots
gust
knots
rain 1hr
in
rain 24hr
in
rain mn
in
humidity
%
barometer
mb
20260502193215 62 180 0.0 0.0 0.00 0.00 0.00 53 1015.7
20260502190216 61 108 2.6 0.0 0.00 0.00 0.00 57 1015.6
20260502183210 67 197 0.9 0.0 0.00 0.00 0.00 46 1015.2
20260502180211 70 253 0.9 0.0 0.00 0.00 0.00 40 1015.1
20260502170209 73 144 3.5 0.0 0.00 0.00 0.00 35 1015.4
20260502163210 74 160 0.9 0.0 0.00 0.00 0.00 32 1015.7
20260502160213 74 194 7.0 0.0 0.00 0.00 0.00 33 1016.0
20260502150210 75 74 2.6 0.0 0.00 0.00 0.00 33 1016.5
20260502130210 74 355 0.9 0.0 0.00 0.00 0.00 32 1018.2
20260502123210 70 94 0.9 0.0 0.00 0.00 0.00 30 1020.1
20260502120210 70 94 0.9 0.0 0.00 0.00 0.00 30 1020.1
20260502113210 70 94 0.9 0.0 0.00 0.00 0.00 30 1020.1
20260502110210 70 94 0.9 0.0 0.00 0.00 0.00 30 1020.1
20260502103210 71 19 3.5 0.0 0.00 0.00 0.00 30 1020.1
20260502100210 70 26 3.5 0.0 0.00 0.00 0.00 31 1020.6
20260502090210 66 342 0.9 0.0 0.00 0.00 0.00 44 1021.1
20260502070213 56 94 0.0 0.0 0.00 0.00 0.00 57 1021.7
20260502063212 54 84 0.0 0.0 0.00 0.00 0.00 61 1021.8
20260502060210 51 64 1.7 0.0 0.00 0.00 0.00 64 1021.9
20260502053210 46 351 0.0 0.0 0.00 0.00 0.00 70 1022.0
20260502050211 42 56 0.0 0.0 0.00 0.00 0.00 77 1021.9
20260502043211 38 325 0.0 0.0 0.00 0.00 0.00 80 1022.0
20260502040212 38 27 0.0 0.0 0.00 0.00 0.00 80 1022.0
20260502033211 39 27 0.0 0.0 0.00 0.00 0.00 79 1022.0
20260502030211 40 27 0.0 0.0 0.00 0.00 0.00 77 1022.0
20260502023214 40 27 0.0 0.0 0.00 0.00 0.00 76 1022.2
20260502020212 42 27 0.0 0.0 0.00 0.00 0.00 75 1022.4
20260502013211 43 5 0.0 0.0 0.00 0.00 0.00 72 1022.4
20260502010211 45 20 0.0 0.0 0.00 0.00 0.00 67 1022.5
20260502003209 47 311 1.7 0.0 0.00 0.00 0.00 64 1022.8
20260502000211 48 346 0.0 0.0 0.00 0.00 0.00 61 1022.8
20260501233210 53 63 0.0 0.0 0.00 0.00 0.00 51 1022.8
20260501230210 56 95 2.6 0.0 0.00 0.00 0.00 46 1022.7
20260501223209 56 130 9.6 0.0 0.00 0.00 0.00 46 1022.6
20260501220210 58 117 7.0 0.0 0.00 0.00 0.00 43 1022.7
20260501213210 58 90 10.4 0.0 0.00 0.00 0.00 42 1022.7
20260501210209 59 78 10.4 0.0 0.00 0.00 0.00 40 1023.0
20260501203209 59 105 7.8 0.0 0.00 0.00 0.00 39 1023.1
20260501200211 60 119 6.1 0.0 0.00 0.00 0.00 39 1022.9